TimeCST,TemperatureF,Dew PointF,Humidity,Sea Level PressureIn,VisibilityMPH,Wind Direction,Wind SpeedMPH,Gust SpeedMPH,PrecipitationIn,Events,Conditions,WindDirDegrees,DateUTC
12:15 AM,33.8,24.8,70,30.31,10.0,Calm,Calm,-,N/A,,Clear,0,2012-12-22 06:15:00
12:35 AM,35.6,23.0,60,30.30,10.0,Calm,Calm,-,N/A,,Clear,0,2012-12-22 06:35:00
12:55 AM,35.6,23.0,60,30.30,10.0,Calm,Calm,-,N/A,,Clear,0,2012-12-22 06:55:00
1:15 AM,44.6,19.4,37,30.30,10.0,West,4.6,-,N/A,,Clear,270,2012-12-22 07:15:00
1:35 AM,41.0,19.4,42,30.29,10.0,Calm,Calm,-,N/A,,Clear,0,2012-12-22 07:35:00
1:55 AM,42.8,19.4,39,30.29,10.0,Calm,Calm,-,N/A,,Clear,0,2012-12-22 07:55:00
2:15 AM,46.4,17.6,32,30.28,10.0,WSW,4.6,-,N/A,,Clear,240,2012-12-22 08:15:00
2:35 AM,46.4,17.6,32,30.28,10.0,Calm,Calm,-,N/A,,Clear,0,2012-12-22 08:35:00
2:55 AM,39.2,19.4,45,30.29,10.0,Calm,Calm,-,N/A,,Clear,0,2012-12-22 08:55:00
3:15 AM,41.0,19.4,42,30.28,10.0,Calm,Calm,-,N/A,,Clear,0,2012-12-22 09:15:00
3:55 AM,42.8,17.6,36,30.27,10.0,Calm,Calm,-,N/A,,Clear,0,2012-12-22 09:55:00
4:15 AM,42.8,17.6,36,30.27,10.0,Calm,Calm,-,N/A,,Clear,0,2012-12-22 10:15:00
4:55 AM,44.6,15.8,31,30.27,10.0,Calm,Calm,-,N/A,,Clear,0,2012-12-22 10:55:00
5:15 AM,42.8,17.6,36,30.27,10.0,Calm,Calm,-,N/A,,Clear,0,2012-12-22 11:15:00
5:55 AM,41.0,17.6,39,30.27,10.0,Calm,Calm,-,N/A,,Clear,0,2012-12-22 11:55:00
6:15 AM,42.8,17.6,36,30.27,10.0,Calm,Calm,-,N/A,,Clear,0,2012-12-22 12:15:00
6:35 AM,41.0,15.8,36,30.27,10.0,Calm,Calm,-,N/A,,Clear,0,2012-12-22 12:35:00
6:55 AM,37.4,17.6,45,30.27,10.0,Calm,Calm,-,N/A,,Clear,0,2012-12-22 12:55:00
7:15 AM,33.8,19.4,56,30.27,10.0,Calm,Calm,-,N/A,,Clear,0,2012-12-22 13:15:00
7:35 AM,35.6,19.4,52,30.27,10.0,Calm,Calm,-,N/A,,Clear,0,2012-12-22 13:35:00
7:55 AM,39.2,19.4,45,30.27,10.0,Calm,Calm,-,N/A,,Clear,0,2012-12-22 13:55:00
8:15 AM,46.4,17.6,32,30.27,10.0,WSW,4.6,-,N/A,,Clear,240,2012-12-22 14:15:00
8:35 AM,46.4,17.6,32,30.27,10.0,Calm,Calm,-,N/A,,Clear,0,2012-12-22 14:35:00
8:55 AM,50.0,19.4,30,30.27,10.0,WSW,4.6,-,N/A,,Clear,240,2012-12-22 14:55:00
9:15 AM,50.0,17.6,28,30.27,10.0,WSW,4.6,-,N/A,,Clear,240,2012-12-22 15:15:00
9:35 AM,51.8,17.6,26,30.28,10.0,WSW,6.9,-,N/A,,Clear,250,2012-12-22 15:35:00
9:55 AM,51.8,17.6,26,30.27,10.0,West,5.8,-,N/A,,Clear,270,2012-12-22 15:55:00
10:15 AM,53.6,17.6,24,30.27,10.0,WSW,5.8,-,N/A,,Clear,250,2012-12-22 16:15:00
10:35 AM,55.4,15.8,21,30.26,10.0,West,9.2,-,N/A,,Clear,260,2012-12-22 16:35:00
10:55 AM,55.4,15.8,21,30.26,10.0,WSW,13.8,-,N/A,,Clear,250,2012-12-22 16:55:00
11:15 AM,59.0,14.0,17,30.25,10.0,WSW,8.1,16.1,N/A,,Clear,250,2012-12-22 17:15:00
11:35 AM,59.0,15.8,19,30.24,10.0,WSW,8.1,-,N/A,,Clear,250,2012-12-22 17:35:00
11:55 AM,59.0,15.8,19,30.22,10.0,SW,8.1,-,N/A,,Clear,230,2012-12-22 17:55:00
12:15 PM,60.8,15.8,17,30.21,10.0,WSW,6.9,-,N/A,,Clear,240,2012-12-22 18:15:00
12:35 PM,62.6,10.4,13,30.19,10.0,WSW,9.2,17.3,N/A,,Clear,250,2012-12-22 18:35:00
12:55 PM,62.6,8.6,12,30.18,10.0,WSW,9.2,20.7,N/A,,Clear,240,2012-12-22 18:55:00
1:15 PM,62.6,6.8,11,30.17,10.0,WSW,12.7,20.7,N/A,,Clear,240,2012-12-22 19:15:00
1:35 PM,64.4,8.6,11,30.15,10.0,WSW,15.0,26.5,N/A,,Clear,240,2012-12-22 19:35:00
1:55 PM,64.4,8.6,11,30.15,10.0,WSW,17.3,27.6,N/A,,Clear,240,2012-12-22 19:55:00
2:15 PM,64.4,8.6,11,30.13,10.0,SW,11.5,18.4,N/A,,Clear,220,2012-12-22 20:15:00
2:35 PM,64.4,10.4,12,30.13,10.0,WSW,11.5,19.6,N/A,,Clear,240,2012-12-22 20:35:00
3:15 PM,64.4,10.4,12,30.12,10.0,SW,8.1,-,N/A,,Clear,220,2012-12-22 21:15:00
3:35 PM,62.6,10.4,13,30.11,10.0,South,10.4,17.3,N/A,,Clear,190,2012-12-22 21:35:00
3:55 PM,62.6,12.2,14,30.11,10.0,SSW,6.9,-,N/A,,Clear,210,2012-12-22 21:55:00
4:15 PM,60.8,14.0,16,30.11,10.0,SW,4.6,-,N/A,,Clear,220,2012-12-22 22:15:00
4:35 PM,60.8,15.8,17,30.11,10.0,SSW,5.8,-,N/A,,Clear,210,2012-12-22 22:35:00
4:55 PM,59.0,17.6,20,30.11,10.0,SSW,4.6,-,N/A,,Clear,200,2012-12-22 22:55:00
5:15 PM,59.0,17.6,20,30.11,10.0,SSW,5.8,-,N/A,,Clear,200,2012-12-22 23:15:00
5:35 PM,59.0,19.4,22,30.11,10.0,SSW,5.8,-,N/A,,Clear,200,2012-12-22 23:35:00
5:55 PM,59.0,19.4,22,30.11,10.0,SSW,5.8,-,N/A,,Clear,200,2012-12-22 23:55:00
6:15 PM,59.0,21.2,23,30.11,10.0,South,3.5,-,N/A,,Clear,190,2012-12-23 00:15:00
6:35 PM,59.0,21.2,23,30.10,10.0,SSW,3.5,-,N/A,,Clear,200,2012-12-23 00:35:00
6:55 PM,59.0,21.2,23,30.10,10.0,SSW,3.5,-,N/A,,Clear,210,2012-12-23 00:55:00
7:15 PM,59.0,19.4,22,30.10,10.0,South,6.9,-,N/A,,Clear,190,2012-12-23 01:15:00
7:35 PM,59.0,19.4,22,30.09,10.0,SSW,3.5,-,N/A,,Clear,210,2012-12-23 01:35:00
7:55 PM,59.0,17.6,20,30.09,10.0,Calm,Calm,-,N/A,,Clear,0,2012-12-23 01:55:00
8:15 PM,59.0,19.4,22,30.08,10.0,SSW,4.6,-,N/A,,Clear,210,2012-12-23 02:15:00
8:35 PM,59.0,21.2,23,30.08,10.0,SSW,4.6,-,N/A,,Clear,210,2012-12-23 02:35:00
9:15 PM,59.0,26.6,29,30.07,10.0,SW,6.9,-,N/A,,Clear,220,2012-12-23 03:15:00
9:35 PM,59.0,28.4,31,30.06,10.0,SSW,8.1,-,N/A,,Clear,210,2012-12-23 03:35:00
9:55 PM,59.0,30.2,34,30.06,10.0,SSW,5.8,-,N/A,,Clear,200,2012-12-23 03:55:00
10:15 PM,59.0,32.0,36,30.06,10.0,SSW,6.9,-,N/A,,Clear,210,2012-12-23 04:15:00
10:35 PM,59.0,32.0,36,30.06,10.0,SSW,4.6,17.3,N/A,,Clear,200,2012-12-23 04:35:00
10:55 PM,59.0,32.0,36,30.06,10.0,SSW,10.4,20.7,N/A,,Clear,200,2012-12-23 04:55:00
11:15 PM,59.0,33.8,39,30.06,10.0,SW,9.2,19.6,N/A,,Clear,220,2012-12-23 05:15:00
11:55 PM,57.2,33.8,41,30.05,10.0,SSW,10.4,18.4,N/A,,Scattered Clouds,210,2012-12-23 05:55:00